Terminal Aerodrome Forecast
Issued by NWS

Home | Current Version | Previous Version | Text Only | Print | Product List | Glossary On
Versions: 1 2 3 4 5 6 7 8 9 10 11 12 13 14 15 16 17 18 19 20 21 22
000
FTUS43 KDVN 140200 AAB
TAFBRL
TAF AMD
KBRL 140200Z 1402/1424 17008KT 6SM -SHRA BR OVC035
      TEMPO 1402/1403 3SM SHRA BR OVC020
     FM140300 31012G20KT 1 1/2SM -RA BR OVC008
     FM140900 33017G26KT 6SM -RASN BR OVC004
     FM141300 34018G28KT P6SM OVC015=

USA.gov is the U.S. government's official web portal to all federal, state and local government web resources and services.